Regional Weather Roundup
Issued by NWS Wakefield, VA

Current Version | Previous Version | Text Only | Print | Product List | Glossary Off
Versions: 1 2 3 4 5 6 7 8 9 10 11 12 13 14 15 16 17 18 19 20 21 22 23 24 25 26 27

000
ASUS41 KAKQ 291315
RWRAKQ

REGIONAL WEATHER ROUNDUP
NATIONAL WEATHER SERVICE WAKEFIELD VA
900 AM EDT THU SEP 29 2016

Note: "fair" indicates few or no clouds below 12,000 feet with no
significant weather and/or obstructions to visibility. * = Denotes
station may not report precipitation (e.g., rain,snow,etc.),
thunder or fog.

VAZ042-051-052>054-056-291400-
NORTHERN VIRGINIA

CITY           SKY/WX    TMP DP  RH WIND       PRES   REMARKS
WASH NATIONAL  LGT RAIN  70  68  93 E10       30.11R
DULLES         CLOUDY    67  64  90 E15G23    30.10R FOG
FORT BELVOIR   CLOUDY    68  66  93 VRB2      30.10R
QUANTICO       CLOUDY    71  67  87 E12       30.09R
FREDERICKSBRG* CLOUDY    69  69 100 E10       30.07R
STAFFORD*      CLOUDY    69  68  99 E10G17    30.12R
WARRENTON      CLOUDY    69  64  84 E14G20    30.07S
CULPEPER*      CLOUDY    69  68  98 CALM      30.10R
MANASSAS*      CLOUDY    68  66  94 E7        30.09R
LEESBURG*      CLOUDY    66  66 100 E9G16     30.12R
WINCHESTER     DRIZZLE   64  64 100 E8          N/A
FRONT ROYAL*   CLOUDY    64  64 100 CALM      30.08R
LURAY*         LGT RAIN N/A N/A N/A N5        30.07R
$$

VAZ048-049-060>072-079>083-291400-
CENTRAL AND SOUTH CENTRAL VIRGINIA

CITY           SKY/WX    TMP DP  RH WIND       PRES   REMARKS
RICHMOND       LGT RAIN  68  67  96 NE7       30.05R
CHESTERFIELD*  CLOUDY    70  54  56 E8        30.05S
PETERSBURG*    LGT RAIN N/A N/A N/A NE6       30.05R
HANOVER        NOT AVBL
TAPPAHANNOCK*  CLOUDY    72  72 100 E14       30.07R
QUINTON*       CLOUDY    71  70  98 E10G16    30.05S
CHARLOTTSVILLE CLOUDY    70  65  84 E6        30.06R HAZE
GORDONSVILLE*  CLOUDY    68  68 100 E5        30.06R
ORANGE*          N/A     68  68 100 NE7       30.09R
LOUISA*        CLOUDY    70  70 100 CALM      30.05R
BUMPASS*       PTSUNNY   67  67 100 E5        30.07R
FARMVILLE*     CLOUDY    68  67  98 NE5       30.03S
CREWE*         CLOUDY    66  66 100 CALM      30.04R
FORT PICKETT*  CLOUDY   N/A N/A N/A N7        30.03R
CHASE CITY*    FAIR      65  64  94 CALM      30.03R
CLARKSVILLE*   FAIR      64  64 100 CALM      30.02R
SOUTH HILL*    PTSUNNY   66  66 100 CALM      30.08R
LAWRENCEVILLE* PTSUNNY   69  67  92 E8        30.00R
EMPORIA*         N/A     70  70 100 E14       30.03F
$$

VAZ088>098-291400-
SOUTHEAST VIRGINIA

CITY           SKY/WX    TMP DP  RH WIND       PRES   REMARKS
NORFOLK        MOSUNNY   75  71  87 E6        30.05S
VIRGINIA BEACH CLOUDY    77  73  87 E8        30.05R
NORFOLK NAVAL  PTSUNNY   74  70  87 CALM      30.07R
WEST POINT*    CLOUDY    72  71  96 E12       30.08R
SALUDA*        CLOUDY    71  71 100 E7        30.08R
NEWPORT NEWS   MOSUNNY   74  71  91 E6        30.06R
LANGLEY AFB    CLOUDY    75  74  97 E9        30.06R
FORT EUSTIS    PTSUNNY   74  71  91 E9        30.03R
WILLIAMSBURG*  PTSUNNY   73  73 100 E7        30.06S
HR EXEC AP*    PTSUNNY   72  70  94 CALM      30.08R
FRANKLIN*      CLOUDY    73  69  88 E3        30.06R
US460-WAKEFLD  CLOUDY    73  70  90 SE5       30.05R
$$

VAZ020-022-025-037-045-291400-
WEST CENTRAL AND SOUTHWEST VIRGINIA

CITY           SKY/WX    TMP DP  RH WIND       PRES   REMARKS
STAUNTON*      CLOUDY    63  63  99 CALM      30.09R FOG
WAYNESBORO*    CLOUDY    63  62  96 MISG      30.08R
HOT SPRINGS VA RAIN      55  55 100 E5        30.10R VSB<1/4
LYNCHBURG      CLOUDY    67  64  90 E6        30.05S
DANVILLE       PTSUNNY   67  65  93 NE5       30.03R
SOUTH BOSTON*  FAIR      65  64  95 N3        30.03R
MARTINSVILLE   CLOUDY    65  62  91 E5        30.05R
ROANOKE        LGT RAIN  65  64  97 E5        30.05R FOG
BLACKSBURG     CLOUDY    63  63  97 E7        30.07R
DUBLIN*        FOG       60  60  99 E3        30.05R VSB 3/4
MARION*        CLOUDY    58  54  89 CALM      30.06S
HILLSVILLE*    PTSUNNY   60  60 100 E9        30.03S
RICHLANDS*     LGT RAIN  60  58  94 E9G16     30.00S
WISE*          CLOUDY    54  52  94 CALM      30.03R
ABINGDON*      CLOUDY    59  54  83 E5        30.00R
$$

MDZ021>025-VAZ099-100-291400-
SOUTHERN MARYLAND AND THE DELMARVA PENINSULA

CITY           SKY/WX    TMP DP  RH WIND       PRES   REMARKS
PATUXENT RIVER LGT RAIN  71  68  90 E18G28    30.09R
BAY BRIDGE APT LGT RAIN  68  66  94 MISG      30.14R
LEONARDTOWN    CLOUDY    70  66  88 E10G20    30.10F
DOVER          CLOUDY    67  67 100 E23G36    30.17R
GEORGETOWN     CLOUDY    68  68 100 E14G24    30.17R
EASTON         CLOUDY    68  66  94 E12G18    30.18R FOG
CAMBRIDGE      CLOUDY    68  64  88 E14G24    30.13R
SALISBURY      LGT RAIN  69  67  93 E16       30.14R
OCEAN CITY     RAIN     N/A N/A N/A E28G39    30.15R
WALLOPS ISLAND LGT RAIN  72  71  97 NE24G32   30.12R
ACCOMACK*      PTSUNNY   73  68  86 E15G23    30.09S
$$

NCZ012>017-030>032-291400-
NORTH CENTRAL AND EASTERN NORTH CAROLINA

CITY           SKY/WX    TMP DP  RH WIND       PRES   REMARKS
ROANOKE RAPIDS LGT RAIN  66  64  94 S6        30.01F
RALEIGH        PTSUNNY   66  65  96 CALM      30.02R
ELIZABETH CITY CLOUDY    77  74  90 NE6       30.05R
AHOSKIE*       CLOUDY    72  71  98 CALM      30.06R FOG
EDENTON*       CLOUDY    77  77 100 CALM      30.05R
CURRITUCK*     NOT AVBL
KILL DEVIL HLS CLOUDY    79  78  98 E3        30.02S
MANTEO         CLOUDY    77  74  91 E6        30.04R
CAPE HATTERAS  MOSUNNY   78  72  81 E6        30.02R
TARBORO*       LGT RAIN  68  67  98 CALM      30.05S
GOLDSBORO      HVY RAIN  68  68 100 NW10G20   30.03R FOG
WASHINGTON     SUNNY     72  71  96 NE5       30.03R
GREENVILLE     CLOUDY    72  72 100 N9        30.05R
NEW BERN       MOSUNNY   75  73  93 E6        30.03R
WILMINGTON     CLOUDY    78  73  84 CALM      29.99R
$$

VAZ048-291400-
ELSEWHERE

CITY           SKY/WX    TMP DP  RH WIND       PRES   REMARKS
HARRISBURG PA  HVY RAIN  60  59  96 E14G23    30.20R FOG
BALTIMORE      HVY RAIN  65  64  97 E20       30.15S VSB 1
ANNAPOLIS      LGT RAIN  70  66  87 E22G29    30.13R
ANDREWS AFB    PTSUNNY   68  66  94 E13G20    30.10R
PHILADELPHIA   DRIZZLE   64  61  90 E16G28    30.24R FOG
HENDERSON NC   MOSUNNY   62  61  97 CALM      30.02R
GREENSBORO     CLOUDY    65  65 100 E15       30.01R
ROCKY MOUNT    LGT RAIN  67  66  97 E7        30.03R
$$

VAZ100-291400-
MARINE

STATION/POSITION TIME  TEMP    WIND        PRES    WAVE   SWELL
                       AIR SEA DIR/SP/G            HT/PER HT/PER
                 (UTC) (F)     (DEG/KT/KT) (MB)    (FT/S) (FT/S)
BRANDYWINE LGT   1248   68      80/ 28/ 32   N/A
CAPE MAY NJ      1248   67 71   60/ 14/ 23 1021.2R
LEWES DE         1248   69 70  100/ 24/ 31 1020.8R
OCEAN-CITY-INLET 1242   68 72   90/ 17/ 31 1020.8R
WACHAPREAGUE VA  1248   72 74   50/ 17/ 20 1018.8R
THOMAS POINT MD  1300   69 73   90/ 28/ 32 1020.7R
GOOSES REEF MD   1250   71     120/ 23/ 29 1019.4R
COVE POINT MD    1248          120/ 21/ 26 1019.7R
SOLOMONS ISLAND  1242   71 74   80/ 19/ 23   N/A
BISHOPS HEAD MD  1248   71 70   80/ 16/ 24 1019.6R
PINEY POINT MD   1248          110/ 22/ 25   N/A
POTOMAC MD       1250   72     110/ 21/ 27 1017.9R
CAMBRIDGE MD     1248   70 73   80/ 17/ 22 1019.3R
LEWISETTA VA     1248   72 72  110/ 25/ 29 1017.9S
RAPPAHANNOCK LGT 1248           60/ 16/ 18 1019.2R
STINGRAY PT      1250   73      10/ 16/ 17 1018.8R
YORK RVR RNG VA  1248   72      40/ 14/ 15 1017.6R
YORKTOWN VA      1248   73 76   70/ 14/ 15 1017.8R
JAMESTOWN VA     1250   73      80/ 10/ 14   N/A
DOMINION TERM VA 1248   75      60/  3/  4 1017.8R
KIPTOPEKE VA     1248      75   70/  7/ 12   N/A
CHES BAY BRIDGE  1248   76 76   50/ 12/ 16 1017.7R
CAPE HENRY VA    1248   76      70/ 13/ 14   N/A
WILLOUBY STN VA  1248   74      80/  5/  6   N/A
CAPE HENRY BUOY  1242      76                N/A     4/ 8   2/11
1ST LANDING BUOY 1250   76      80/ 12/ 16 1017.6R
CAPE CHARLES BUO 1156      76                N/A     4/ 8   2/11
OFFSHORE WE BUOY 1151      75                N/A     6/ 8   2/11
64NM E OF VA BCH 1250   76 73   80/  6/  6 1017.5R   6/ 8   5/ 8
DUCK PIER NC     1248   78 76   70/  7/  9 1016.8R
44056 DUCK FRF   1241      76                N/A     4/ 7   2/12
OREGON INLET NC  1248   77 77   40/  6/  8 1016.9R
HATTERAS NC      1248   78 78   70/  5/  7 1016.3R
DIAMOND SHLS NC  1250   79 81   30/  6/  8 1016.2R   3/11   3/11
CAPE LOOKOUT NC  1300   79     100/  4/  5 1016.0R
$$




USA.gov is the U.S. government's official web portal to all federal, state and local government web resources and services.